timestamp,wind_dir_avg,wind_spd_avg,wind_spd_max_dir,wind_spd_gust,battery_voltage,lat,long
2024-02-24 00:04:00+00:00,177.0,1.61,174.0,1.81,12.25,47.59359,-54.27349
2024-02-24 00:14:00+00:00,153.0,1.63,153.0,2.01,12.17,47.59359,-54.27349
2024-02-24 00:24:00+00:00,198.0,1.31,194.0,1.59,12.17,47.59359,-54.27349
2024-02-24 00:34:00+00:00,197.0,1.59,195.0,2.02,12.17,47.59359,-54.27349
2024-02-24 00:44:00+00:00,136.0,2.46,138.0,2.65,12.17,47.59359,-54.27349
2024-02-24 00:54:00+00:00,162.0,0.83,170.0,1.08,12.17,47.59359,-54.27349
2024-02-24 01:04:00+00:00,152.0,2.17,127.0,3.19,12.17,47.59359,-54.27349
2024-02-24 01:14:00+00:00,116.0,2.39,112.0,2.57,12.17,47.59359,-54.27349
2024-02-24 01:24:00+00:00,127.0,2.29,136.0,2.66,12.17,47.59359,-54.27349
2024-02-24 01:34:00+00:00,201.0,2.67,230.0,4.19,12.17,47.59359,-54.27349
2024-02-24 01:44:00+00:00,161.0,3.23,213.0,4.24,12.17,47.59359,-54.27349
2024-02-24 01:54:00+00:00,162.0,2.33,227.0,3.21,12.17,47.59359,-54.27349
2024-02-24 02:04:00+00:00,146.0,4.04,144.0,4.4,12.17,47.59359,-54.27349
2024-02-24 02:14:01+00:00,184.0,3.65,219.0,5.08,12.09,47.59359,-54.27349
2024-02-24 02:24:01+00:00,224.0,4.66,222.0,5.25,12.09,47.59359,-54.27349
2024-02-24 02:34:01+00:00,191.0,4.71,212.0,5.76,12.09,47.59359,-54.27349
2024-02-24 02:44:01+00:00,158.0,5.3,159.0,5.99,12.09,47.59359,-54.27349
2024-02-24 02:54:01+00:00,171.0,5.02,163.0,5.7,12.09,47.59359,-54.27349
2024-02-24 03:04:01+00:00,186.0,6.82,205.0,8.23,12.09,47.59359,-54.27349
2024-02-24 03:14:00+00:00,216.0,6.58,228.0,8.33,12.09,47.59359,-54.27349
2024-02-24 03:24:00+00:00,213.0,6.39,211.0,6.96,12.09,47.59359,-54.27349
2024-02-24 03:34:00+00:00,218.0,6.27,239.0,9.95,12.09,47.59359,-54.27349
2024-02-24 03:44:00+00:00,219.0,4.89,217.0,5.66,12.09,47.59359,-54.27349
2024-02-24 03:54:00+00:00,219.0,5.11,216.0,6.01,12.09,47.59359,-54.27349
2024-02-24 04:04:00+00:00,204.0,6.83,203.0,7.46,12.09,47.59359,-54.27349
2024-02-24 04:14:00+00:00,217.0,6.1,219.0,7.29,12.09,47.59359,-54.27349
2024-02-24 04:24:00+00:00,218.0,5.57,218.0,6.48,12.09,47.59359,-54.27349
2024-02-24 04:34:00+00:00,226.0,7.17,240.0,10.13,12.09,47.59359,-54.27349
2024-02-24 04:44:00+00:00,229.0,7.76,241.0,10.94,12.09,47.59359,-54.27349
2024-02-24 04:54:00+00:00,211.0,6.55,209.0,7.32,12.09,47.59359,-54.27349
2024-02-24 05:04:00+00:00,218.0,7.01,233.0,9.2,12.09,47.59359,-54.27349
2024-02-24 05:14:01+00:00,217.0,6.03,214.0,6.57,12.09,47.59359,-54.27349
2024-02-24 05:24:01+00:00,215.0,5.4,215.0,6.31,12.09,47.59359,-54.27349
2024-02-24 05:34:01+00:00,207.0,6.81,205.0,7.46,12.09,47.59359,-54.27349
2024-02-24 05:44:01+00:00,220.0,7.0,228.0,9.45,12.09,47.59359,-54.27349
2024-02-24 05:54:01+00:00,214.0,6.39,215.0,6.4,12.09,47.59359,-54.27349
2024-02-24 06:04:01+00:00,315.0,0.01,215.0,0.0,12.09,47.59359,-54.27349
2024-02-24 06:14:00+00:00,315.0,0.01,215.0,0.0,12.09,47.59359,-54.27349
2024-02-24 06:24:00+00:00,315.0,0.01,215.0,0.0,12.09,47.59359,-54.27349
2024-02-24 06:34:00+00:00,315.0,0.01,215.0,0.0,12.09,47.59359,-54.27349
2024-02-24 06:44:00+00:00,315.0,0.01,215.0,0.0,12.09,47.59359,-54.27349
2024-02-24 06:54:00+00:00,315.0,0.01,215.0,0.0,12.09,47.59359,-54.27349
2024-02-24 07:04:00+00:00,315.0,0.01,215.0,0.0,12.09,47.59359,-54.27349
2024-02-24 07:14:01+00:00,315.0,0.01,215.0,0.0,12.09,47.59359,-54.27349
2024-02-24 07:24:01+00:00,315.0,0.01,215.0,0.0,12.09,47.59359,-54.27349
2024-02-24 07:34:01+00:00,315.0,0.01,197.0,0.0,12.09,47.59359,-54.27349
2024-02-24 07:44:01+00:00,250.0,4.87,243.0,5.23,12.09,47.59359,-54.27349
2024-02-24 07:54:01+00:00,315.0,0.01,242.0,0.0,12.09,47.59359,-54.27349
2024-02-24 08:04:01+00:00,243.0,5.77,225.0,7.12,12.09,47.59359,-54.27349
2024-02-24 08:14:00+00:00,256.0,4.73,250.0,5.14,12.01,47.59359,-54.27349
2024-02-24 08:24:00+00:00,247.0,4.81,230.0,6.39,12.01,47.59359,-54.27349
2024-02-24 08:34:00+00:00,243.0,4.06,222.0,5.38,12.01,47.59359,-54.27349
2024-02-24 08:44:00+00:00,240.0,2.97,235.0,3.47,12.01,47.59359,-54.27349
2024-02-24 08:54:00+00:00,247.0,2.6,237.0,3.26,12.01,47.59359,-54.27349
2024-02-24 09:04:00+00:00,315.0,0.01,204.0,0.0,12.01,47.59359,-54.27349
2024-02-24 09:14:00+00:00,315.0,0.01,233.0,0.0,12.01,47.59359,-54.27349
2024-02-24 09:24:00+00:00,315.0,0.01,198.0,0.0,12.01,47.59359,-54.27349
2024-02-24 09:34:00+00:00,235.0,2.11,218.0,2.81,12.01,47.59359,-54.27349
2024-02-24 09:44:00+00:00,315.0,0.01,217.0,0.0,12.01,47.59359,-54.27349
2024-02-24 09:54:00+00:00,241.0,1.98,217.0,2.64,12.01,47.59359,-54.27349
2024-02-24 10:04:00+00:00,315.0,0.01,258.0,0.0,12.01,47.59359,-54.27349
2024-02-24 10:14:00+00:00,315.0,0.01,258.0,0.0,12.01,47.59359,-54.27349
2024-02-24 10:24:00+00:00,315.0,0.01,258.0,0.0,12.01,47.59359,-54.27349
2024-02-24 10:34:00+00:00,315.0,0.01,210.0,0.0,12.01,47.59359,-54.27349
2024-02-24 10:44:00+00:00,315.0,0.01,210.0,0.0,12.01,47.59359,-54.27349
2024-02-24 10:54:00+00:00,315.0,0.01,271.0,0.0,12.01,47.59359,-54.27349
2024-02-24 11:04:00+00:00,315.0,0.01,245.0,0.0,12.01,47.59359,-54.27349
2024-02-24 11:14:00+00:00,315.0,0.01,245.0,0.0,11.93,47.59359,-54.27349
2024-02-24 11:24:00+00:00,315.0,0.01,245.0,0.0,11.93,47.59359,-54.27349
2024-02-24 11:34:00+00:00,315.0,0.01,241.0,0.0,11.93,47.59359,-54.27349
2024-02-24 11:44:00+00:00,315.0,0.01,241.0,0.0,11.93,47.59359,-54.27349
2024-02-24 11:54:00+00:00,315.0,0.01,241.0,0.0,11.93,47.59359,-54.27349
2024-02-24 12:04:00+00:00,315.0,0.01,241.0,0.0,11.93,47.59359,-54.27349
2024-02-24 12:14:00+00:00,315.0,0.01,241.0,0.0,12.65,47.59359,-54.27349
2024-02-24 12:24:00+00:00,315.0,0.01,241.0,0.0,12.65,47.59359,-54.27349
2024-02-24 12:34:00+00:00,315.0,0.01,204.0,0.0,12.65,47.59359,-54.27349
2024-02-24 12:44:00+00:00,216.0,6.57,215.0,7.42,12.65,47.59359,-54.27349
2024-02-24 12:54:00+00:00,224.0,10.0,228.0,11.15,12.65,47.59359,-54.27349
2024-02-24 13:04:00+00:00,215.0,9.44,224.0,12.0,12.65,47.59359,-54.27349
2024-02-24 13:14:00+00:00,227.0,9.39,238.0,10.98,14.32,47.59359,-54.27349
2024-02-24 13:24:00+00:00,233.0,9.38,231.0,10.98,14.32,47.59359,-54.27349
2024-02-24 13:34:00+00:00,231.0,10.36,230.0,11.82,14.32,47.59359,-54.27349
2024-02-24 13:44:00+00:00,232.0,11.37,230.0,12.13,14.32,47.59359,-54.27349
2024-02-24 13:54:00+00:00,233.0,11.31,230.0,12.56,14.32,47.59359,-54.27349
2024-02-24 14:04:00+00:00,236.0,11.15,235.0,12.25,14.32,47.59359,-54.27349
2024-02-24 14:14:00+00:00,227.0,10.09,229.0,11.72,13.6,47.59359,-54.27349
2024-02-24 14:24:00+00:00,233.0,9.91,236.0,11.5,13.6,47.59359,-54.27349
2024-02-24 14:34:00+00:00,239.0,10.28,239.0,11.66,13.6,47.59359,-54.27349
2024-02-24 14:44:00+00:00,241.0,8.28,235.0,11.12,13.6,47.59359,-54.27349
2024-02-24 14:54:00+00:00,220.0,7.26,235.0,10.95,13.6,47.59359,-54.27349
2024-02-24 15:04:00+00:00,200.0,8.84,202.0,10.46,13.6,47.59359,-54.27349
2024-02-24 15:14:00+00:00,196.0,12.82,200.0,15.65,13.68,47.59359,-54.27349
2024-02-24 15:24:00+00:00,201.0,12.44,212.0,14.76,13.68,47.59359,-54.27349
2024-02-24 15:34:00+00:00,224.0,12.16,222.0,13.87,13.68,47.59359,-54.27349
2024-02-24 15:44:00+00:00,202.0,11.86,203.0,13.71,13.68,47.59359,-54.27349
2024-02-24 15:54:00+00:00,194.0,14.82,197.0,16.61,13.68,47.59359,-54.27349
2024-02-24 16:04:00+00:00,199.0,14.31,204.0,16.4,13.68,47.59359,-54.27349
2024-02-24 16:14:00+00:00,197.0,15.13,204.0,17.5,14.4,47.59359,-54.27349
2024-02-24 16:24:00+00:00,193.0,15.69,197.0,17.18,14.4,47.59359,-54.27349
2024-02-24 16:34:00+00:00,195.0,12.84,193.0,14.46,14.4,47.59359,-54.27349
2024-02-24 16:44:00+00:00,217.0,9.9,224.0,11.05,14.4,47.59359,-54.27349
2024-02-24 16:54:00+00:00,234.0,9.16,240.0,11.05,14.4,47.59359,-54.27349
2024-02-24 17:04:00+00:00,247.0,9.86,247.0,10.95,14.4,47.59359,-54.27349
2024-02-24 17:14:01+00:00,255.0,10.34,252.0,11.89,13.76,47.59359,-54.27349
2024-02-24 17:24:01+00:00,221.0,7.27,241.0,9.96,13.76,47.59359,-54.27349
2024-02-24 17:34:01+00:00,192.0,13.28,190.0,14.94,13.76,47.59359,-54.27349
2024-02-24 17:44:01+00:00,194.0,13.94,199.0,15.23,13.76,47.59359,-54.27349
2024-02-24 17:54:01+00:00,199.0,11.76,207.0,13.17,13.76,47.59359,-54.27349
2024-02-24 18:04:01+00:00,193.0,13.74,196.0,15.84,13.76,47.59359,-54.27349
2024-02-24 18:14:00+00:00,196.0,12.26,204.0,14.36,13.6,47.59359,-54.27349
2024-02-24 18:24:00+00:00,198.0,11.84,207.0,13.39,13.6,47.59359,-54.27349
2024-02-24 18:34:00+00:00,204.0,10.32,202.0,11.67,13.6,47.59359,-54.27349
2024-02-24 18:44:00+00:00,206.0,10.55,204.0,12.3,13.6,47.59359,-54.27349
2024-02-24 18:54:00+00:00,203.0,10.25,202.0,11.69,13.6,47.59359,-54.27349
2024-02-24 19:04:00+00:00,206.0,10.76,205.0,11.82,13.6,47.59359,-54.27349
2024-02-24 19:14:00+00:00,203.0,10.24,204.0,11.05,13.44,47.59359,-54.27349
2024-02-24 19:24:00+00:00,206.0,9.98,207.0,11.55,13.44,47.59359,-54.27349
2024-02-24 19:34:00+00:00,202.0,11.39,199.0,12.9,13.44,47.59359,-54.27349
2024-02-24 19:44:00+00:00,205.0,9.74,211.0,11.18,13.44,47.59359,-54.27349
2024-02-24 19:54:00+00:00,212.0,10.45,211.0,11.72,13.44,47.59359,-54.27349
2024-02-24 20:04:00+00:00,178.0,12.36,177.0,13.79,13.44,47.59359,-54.27349
2024-02-24 20:14:00+00:00,203.0,11.65,200.0,14.23,13.05,47.59359,-54.27349
2024-02-24 20:24:00+00:00,212.0,8.78,209.0,11.11,13.05,47.59359,-54.27349
2024-02-24 20:34:00+00:00,201.0,10.06,199.0,11.41,13.05,47.59359,-54.27349
2024-02-24 20:44:00+00:00,211.0,10.71,231.0,13.31,13.05,47.59359,-54.27349
2024-02-24 20:54:00+00:00,217.0,11.9,225.0,15.87,13.05,47.59359,-54.27349
2024-02-24 21:04:00+00:00,204.0,11.12,213.0,12.9,13.05,47.59359,-54.27349
2024-02-24 21:14:00+00:00,199.0,12.4,195.0,14.28,12.49,47.59359,-54.27349
2024-02-24 21:24:00+00:00,206.0,11.44,205.0,14.14,12.49,47.59359,-54.27349
2024-02-24 21:34:00+00:00,203.0,12.52,199.0,15.25,12.49,47.59359,-54.27349
2024-02-24 21:44:00+00:00,205.0,11.94,202.0,13.77,12.49,47.59359,-54.27349
2024-02-24 21:54:00+00:00,200.0,13.91,198.0,16.44,12.49,47.59359,-54.27349
2024-02-24 22:04:00+00:00,200.0,11.64,206.0,13.43,12.49,47.59359,-54.27349
2024-02-24 22:14:00+00:00,199.0,12.86,195.0,17.76,12.25,47.59359,-54.27349
2024-02-24 22:24:00+00:00,197.0,13.23,189.0,16.4,12.25,47.59359,-54.27349
2024-02-24 22:34:00+00:00,193.0,16.07,201.0,18.89,12.25,47.59359,-54.27349
2024-02-24 22:44:00+00:00,194.0,15.98,196.0,19.77,12.25,47.59359,-54.27349
2024-02-24 22:54:00+00:00,194.0,15.87,206.0,18.62,12.25,47.59359,-54.27349
2024-02-24 23:04:00+00:00,196.0,16.03,187.0,19.04,12.25,47.59359,-54.27349
2024-02-24 23:14:00+00:00,193.0,18.66,189.0,21.58,12.25,47.59359,-54.27349
2024-02-24 23:24:00+00:00,193.0,17.27,186.0,21.67,12.25,47.59359,-54.27349
2024-02-24 23:34:00+00:00,195.0,17.41,189.0,21.48,12.25,47.59359,-54.27349
2024-02-24 23:44:00+00:00,194.0,18.45,195.0,22.03,12.25,47.59359,-54.27349
2024-02-24 23:54:00+00:00,194.0,18.71,195.0,23.36,12.25,47.59359,-54.27349
